Location: Feydey
(46.3431°N, 7.0106°E)
Time: 21:44:16
(UTC+00:00)

Cosmos 1603 - Pass Details

Date: 31 October 2021
Orbit: 829 x 861 km, 71.0° (Epoch: 27 November)

Event Time Altitude Azimuth Distance (km) Brightness Sun altitude
Rises 04:58:36 0° 339° (NNW) 3,447 6.6 -13.1°
Reaches altitude 10° 05:01:38 10° 354° (N) 2,509 6.0 -12.6°
Maximum altitude 05:06:06 23° 45° (NE) 1,775 5.8 -11.8°
Drops below altitude 10° 05:10:33 10° 97° (E) 2,498 7.8 -11.1°
Sets 05:13:33 0° 111° (ESE) 3,428 8.8 -10.6°
